Find Starlink 38137

NORAD ID: 100198 Int'l Des: 2026-175 Owner: SPXS Country: US Constellation: starlink operational

当前视图

正在加载3D地球...

About Starlink 38137

Starlink 38137 (NORAD 100198) is a starlink constellation satellite launched Aug 1, 2026 by SPXS of US. with a mass of 575.00 kg.

即将过境

Passes for default location (London). Set your location on the main map for personalized predictions.

高度历史

Loading altitude history...

两行轨道根数

1 A0198U 26175V 26221.25757940 .00071687 00000-0 37092-3 0 9994
2 A0198 97.2868 61.5696 0000976 46.7908 313.3442 15.80875931 2525
Epoch: Aug 9, 2026 • Age: 25 hours

当前状态

高度 353.5 km
远地点 / 近地点 N/A
速度 7.70 km/s
星下点 -66.74°S, 153.71°E
发射日期 Aug 1, 2026
运行时间 9 days
类型 internet

技术详情

分类 Payload
质量 575.00 kg
干质量 530.00 kg
总质量 575.00 kg
长度 0.30 m
直径 4.10 m
跨度 29.00 m
形状 Box + pan
制造商 SPXS
平台类型 Starlink V2MO
阶段状态 In Orbit
所有者/国家 SPXS/US

Most Searched